TimeEST,TemperatureF,Dew PointF,Humidity,Sea Level PressureIn,VisibilityMPH,Wind Direction,Wind SpeedMPH,Gust SpeedMPH,PrecipitationIn,Events,Conditions,WindDirDegrees,DateUTC
12:52 AM,33.1,23.0,66,29.98,10.0,West,5.8,-,N/A,,Overcast,260,2013-12-04 05:52:00
1:16 AM,32.0,23.0,69,29.94,10.0,WNW,8.1,-,N/A,,Overcast,300,2013-12-04 06:16:00
1:52 AM,32.0,21.9,66,30.00,10.0,WNW,8.1,-,N/A,,Overcast,300,2013-12-04 06:52:00
2:31 AM,30.9,21.0,67,29.96,10.0,West,4.6,-,N/A,,Overcast,280,2013-12-04 07:31:00
2:52 AM,30.9,21.0,67,30.00,10.0,WSW,3.5,-,N/A,,Overcast,240,2013-12-04 07:52:00
3:52 AM,30.9,21.0,67,30.00,10.0,Calm,Calm,-,N/A,,Overcast,0,2013-12-04 08:52:00
4:23 AM,30.9,21.9,69,29.97,10.0,Calm,Calm,-,N/A,,Overcast,0,2013-12-04 09:23:00
4:52 AM,30.9,21.0,67,30.01,10.0,SSW,3.5,-,N/A,,Overcast,210,2013-12-04 09:52:00
5:52 AM,30.9,21.9,69,30.04,10.0,WSW,4.6,-,N/A,,Overcast,240,2013-12-04 10:52:00
6:52 AM,30.0,23.0,75,30.06,10.0,Calm,Calm,-,N/A,,Overcast,0,2013-12-04 11:52:00
7:06 AM,30.0,24.1,79,30.03,10.0,Calm,Calm,-,N/A,,Overcast,0,2013-12-04 12:06:00
7:52 AM,30.0,24.1,79,30.09,10.0,SW,3.5,-,N/A,,Overcast,230,2013-12-04 12:52:00
8:52 AM,30.9,24.1,76,30.11,10.0,West,4.6,-,N/A,,Overcast,260,2013-12-04 13:52:00
9:52 AM,32.0,24.1,73,30.12,10.0,NW,3.5,-,N/A,,Overcast,320,2013-12-04 14:52:00
10:52 AM,33.1,23.0,66,30.11,10.0,West,4.6,-,N/A,,Overcast,270,2013-12-04 15:52:00
11:52 AM,34.0,23.0,64,30.12,10.0,West,5.8,-,N/A,,Overcast,270,2013-12-04 16:52:00
12:52 PM,34.0,23.0,64,30.11,10.0,WSW,3.5,-,N/A,,Overcast,240,2013-12-04 17:52:00
1:52 PM,36.0,23.0,59,30.10,10.0,Variable,3.5,-,N/A,,Mostly Cloudy,0,2013-12-04 18:52:00
2:36 PM,37.0,24.1,59,30.07,10.0,NNW,4.6,-,N/A,,Scattered Clouds,340,2013-12-04 19:36:00
2:52 PM,36.0,23.0,59,30.12,10.0,Calm,Calm,-,N/A,,Clear,0,2013-12-04 19:52:00
3:52 PM,32.0,23.0,69,30.15,10.0,Calm,Calm,-,N/A,,Partly Cloudy,0,2013-12-04 20:52:00
4:52 PM,28.9,23.0,78,30.15,10.0,Calm,Calm,-,N/A,,Clear,0,2013-12-04 21:52:00
5:52 PM,27.0,21.9,81,30.17,10.0,Calm,Calm,-,N/A,,Clear,0,2013-12-04 22:52:00
6:52 PM,25.0,21.0,85,30.21,8.0,Calm,Calm,-,N/A,,Clear,0,2013-12-04 23:52:00
7:52 PM,24.1,19.9,84,30.19,9.0,Calm,Calm,-,N/A,,Partly Cloudy,0,2013-12-05 00:52:00
8:52 PM,21.0,18.0,88,30.19,8.0,Calm,Calm,-,N/A,,Clear,0,2013-12-05 01:52:00
9:52 PM,21.0,17.1,85,30.18,8.0,Calm,Calm,-,N/A,,Clear,0,2013-12-05 02:52:00
10:52 PM,19.9,16.0,85,30.20,8.0,Calm,Calm,-,N/A,,Clear,0,2013-12-05 03:52:00
11:52 PM,19.9,16.0,85,30.20,8.0,Calm,Calm,-,N/A,,Clear,0,2013-12-05 04:52:00